軌道要素
Epoch 2017 Mar. 28.0 TT = JDT 2457840.5
T 2017 Mar. 16.82490 TT MPCW
q 2.4118854 (2000.0) P Q
n 0.04135235 Peri. 273.61552 +0.01763263 -0.67753629
a 8.2820137 Node 227.53996 +0.30242887 -0.69733016
e 0.7087803 Incl. 94.69014 -0.95300885 -0.23382733
P 23.83
From 125 observations 2016 Sept. 21-2017 June 12, mean residual 0".4.
|